FDX457 PHNL-KMEM

Flight info

Callsign FDX457
Flight time N/A
Altitude 31000
Route MKK5 CODDY DCT FITES R578 FOOTS/N0484F330 R578 FICKY C1177 SXC DCT PKE DCT DRK DCT SJN J74 TXO J72 SPS DCT TXK HOBRK4
Aircraft B77L/H-VGDW/C

Departure

Time N/A
Airport Daniel K. Inouye International Airport (PHNL)

Arrival

Time 2026-05-05 19:11
Airport Memphis International Airport (KMEM)
Time Latitude Longitude Altitude Speed Heading
2026-05-05 18:21 33.65789 -95.28930 30765 ft 579 kts 99°
2026-05-05 18:22 33.64698 -95.19336 30758 ft 579 kts 99°
2026-05-05 18:22 33.63600 -95.09742 30751 ft 579 kts 99°
2026-05-05 18:23 33.62498 -95.00209 30750 ft 580 kts 99°
2026-05-05 18:23 33.61381 -94.90625 30737 ft 579 kts 98°
2026-05-05 18:24 33.60269 -94.81059 30751 ft 578 kts 98°
2026-05-05 18:24 33.59144 -94.71496 30735 ft 578 kts 99°
2026-05-05 18:25 33.58016 -94.62018 30739 ft 577 kts 99°
2026-05-05 18:25 33.56879 -94.52487 30740 ft 576 kts 98°
2026-05-05 18:26 33.55738 -94.42986 30749 ft 575 kts 98°
2026-05-05 18:26 33.54593 -94.33534 30773 ft 575 kts 99°
2026-05-05 18:27 33.53438 -94.24037 30791 ft 576 kts 99°
2026-05-05 18:27 33.52275 -94.14522 30817 ft 577 kts 98°
2026-05-05 18:28 33.52252 -94.00327 30842 ft 566 kts 73°
2026-05-05 18:28 33.54084 -93.91182 30827 ft 567 kts 72°
2026-05-05 18:29 33.55858 -93.81930 30813 ft 570 kts 73°
2026-05-05 18:29 33.57510 -93.72613 30808 ft 570 kts 74°
2026-05-05 18:30 33.59112 -93.63283 30798 ft 570 kts 74°
2026-05-05 18:30 33.60698 -93.54027 30804 ft 570 kts 74°
2026-05-05 18:31 33.62295 -93.44702 30802 ft 569 kts 74°
2026-05-05 18:31 33.63885 -93.35402 30831 ft 567 kts 74°
2026-05-05 18:32 33.65204 -93.27691 30816 ft 568 kts 74°
2026-05-05 18:32 33.66791 -93.18376 30813 ft 569 kts 74°
2026-05-05 18:33 33.68616 -93.07546 30822 ft 570 kts 75°
2026-05-05 18:33 33.69930 -92.99716 30747 ft 571 kts 74°
2026-05-05 18:34 33.70714 -92.95032 30436 ft 571 kts 74°
2026-05-05 18:34 33.71491 -92.90378 30118 ft 566 kts 75°
2026-05-05 18:34 33.72248 -92.85816 29825 ft 560 kts 75°
2026-05-05 18:34 33.73006 -92.81249 29464 ft 554 kts 75°
2026-05-05 18:35 33.73756 -92.76725 29105 ft 549 kts 75°
2026-05-05 18:35 33.74499 -92.72236 28757 ft 545 kts 75°
2026-05-05 18:35 33.75235 -92.67778 28425 ft 541 kts 75°
2026-05-05 18:35 33.75963 -92.63355 28097 ft 537 kts 75°
2026-05-05 18:36 33.76685 -92.58969 27782 ft 534 kts 75°
2026-05-05 18:36 33.77404 -92.54590 27464 ft 529 kts 75°
2026-05-05 18:36 33.78111 -92.50271 27129 ft 526 kts 75°
2026-05-05 18:36 33.78807 -92.46014 26810 ft 523 kts 75°
2026-05-05 18:37 33.79505 -92.41736 26504 ft 520 kts 75°
2026-05-05 18:37 33.80196 -92.37481 26191 ft 517 kts 75°
2026-05-05 18:37 33.80880 -92.33251 25876 ft 514 kts 75°
2026-05-05 18:37 33.81562 -92.29034 25582 ft 512 kts 76°
2026-05-05 18:38 33.82238 -92.24842 25280 ft 509 kts 76°
2026-05-05 18:38 33.82910 -92.20670 24986 ft 506 kts 76°
2026-05-05 18:38 33.83576 -92.16524 24667 ft 503 kts 76°
2026-05-05 18:38 33.84236 -92.12399 24388 ft 500 kts 76°
2026-05-05 18:39 33.84892 -92.08298 24107 ft 498 kts 76°
2026-05-05 18:39 33.85546 -92.04204 23817 ft 495 kts 76°
2026-05-05 18:39 33.86186 -92.00191 23538 ft 492 kts 77°
2026-05-05 18:39 33.86824 -91.96165 23211 ft 489 kts 77°
2026-05-05 18:40 33.87461 -91.92147 22859 ft 486 kts 77°
2026-05-05 18:40 33.88091 -91.88164 22530 ft 483 kts 77°
2026-05-05 18:40 33.88718 -91.84195 22193 ft 479 kts 77°
2026-05-05 18:40 33.89337 -91.80263 21860 ft 476 kts 77°
2026-05-05 18:41 33.89951 -91.76354 21524 ft 473 kts 77°
2026-05-05 18:41 33.90552 -91.72523 21206 ft 470 kts 77°
2026-05-05 18:41 33.91158 -91.68659 20881 ft 468 kts 77°
2026-05-05 18:41 33.91757 -91.64824 20574 ft 465 kts 77°
2026-05-05 18:42 33.92354 -91.61001 20245 ft 462 kts 77°
2026-05-05 18:42 33.93205 -91.57319 19897 ft 451 kts 61°
2026-05-05 18:42 33.94852 -91.54201 19605 ft 434 kts 42°
2026-05-05 18:42 33.96891 -91.51550 19353 ft 434 kts 41°
2026-05-05 18:43 33.98936 -91.48837 19070 ft 438 kts 42°
2026-05-05 18:43 34.00931 -91.46131 19221 ft 435 kts 44°
2026-05-05 18:43 34.02922 -91.43389 18857 ft 434 kts 43°
2026-05-05 18:43 34.04905 -91.40649 18527 ft 431 kts 43°
2026-05-05 18:44 34.06872 -91.37929 18212 ft 429 kts 43°
2026-05-05 18:44 34.08837 -91.35212 17878 ft 427 kts 43°
2026-05-05 18:44 34.10784 -91.32520 17549 ft 425 kts 43°
2026-05-05 18:44 34.12721 -91.29842 17223 ft 423 kts 43°
2026-05-05 18:45 34.14651 -91.27171 16904 ft 421 kts 43°
2026-05-05 18:45 34.16548 -91.24546 16575 ft 419 kts 43°
2026-05-05 18:45 34.18460 -91.21896 16255 ft 418 kts 44°
2026-05-05 18:45 34.20368 -91.19250 16061 ft 414 kts 44°
2026-05-05 18:46 34.22252 -91.16640 16016 ft 412 kts 44°
2026-05-05 18:46 34.24144 -91.14024 16009 ft 415 kts 44°
2026-05-05 18:46 34.26052 -91.11385 16010 ft 418 kts 44°
2026-05-05 18:46 34.27973 -91.08723 16003 ft 419 kts 44°
2026-05-05 18:47 34.29870 -91.06091 15999 ft 419 kts 44°
2026-05-05 18:47 34.31787 -91.03426 15998 ft 419 kts 44°
2026-05-05 18:47 34.33707 -91.00758 15798 ft 421 kts 44°
2026-05-05 18:47 34.35632 -90.98079 15438 ft 420 kts 45°
2026-05-05 18:48 34.37549 -90.95409 15085 ft 417 kts 45°
2026-05-05 18:48 34.39445 -90.92763 14727 ft 413 kts 45°
2026-05-05 18:48 34.41293 -90.90183 14379 ft 409 kts 45°
2026-05-05 18:48 34.43150 -90.87594 14026 ft 405 kts 45°
2026-05-05 18:49 34.44993 -90.85025 13677 ft 402 kts 45°
2026-05-05 18:49 34.46819 -90.82470 13324 ft 398 kts 46°
2026-05-05 18:49 34.48630 -90.79939 12972 ft 395 kts 46°
2026-05-05 18:49 34.50425 -90.77422 12618 ft 393 kts 46°
2026-05-05 18:50 34.52161 -90.74917 12274 ft 393 kts 47°
2026-05-05 18:50 34.53903 -90.72358 11928 ft 393 kts 48°
2026-05-05 18:50 34.55643 -90.69795 11584 ft 394 kts 48°
2026-05-05 18:50 34.57393 -90.67221 11238 ft 393 kts 48°
2026-05-05 18:51 34.59141 -90.64658 10895 ft 392 kts 48°
2026-05-05 18:51 34.60882 -90.62109 10550 ft 392 kts 48°
2026-05-05 18:51 34.62606 -90.59556 10197 ft 390 kts 50°
2026-05-05 18:51 34.64274 -90.56971 9842 ft 386 kts 51°
2026-05-05 18:52 34.65878 -90.54437 9484 ft 380 kts 51°
2026-05-05 18:52 34.67476 -90.51915 9135 ft 376 kts 51°
2026-05-05 18:52 34.69075 -90.49406 8790 ft 374 kts 51°
2026-05-05 18:52 34.70669 -90.46908 8436 ft 372 kts 51°
2026-05-05 18:53 34.72259 -90.44420 8087 ft 370 kts 51°
2026-05-05 18:53 34.73836 -90.41950 7739 ft 368 kts 52°
2026-05-05 18:53 34.75400 -90.39495 7385 ft 366 kts 52°
2026-05-05 18:53 34.76941 -90.37088 7041 ft 362 kts 51°
2026-05-05 18:54 34.78482 -90.34675 6685 ft 360 kts 52°
2026-05-05 18:54 34.80034 -90.32261 6355 ft 361 kts 52°
2026-05-05 18:54 34.81526 -90.29904 5949 ft 337 kts 53°
2026-05-05 18:54 34.82905 -90.27712 5552 ft 314 kts 53°
2026-05-05 18:55 34.84198 -90.25673 5160 ft 295 kts 53°
2026-05-05 18:55 34.85422 -90.23743 4855 ft 281 kts 54°
2026-05-05 18:55 34.86585 -90.21899 4603 ft 273 kts 54°
2026-05-05 18:55 34.87728 -90.20100 4316 ft 264 kts 54°
2026-05-05 18:56 34.88842 -90.18362 4087 ft 255 kts 54°
2026-05-05 18:56 34.89924 -90.16710 4030 ft 245 kts 56°
2026-05-05 18:56 34.90939 -90.15091 3989 ft 242 kts 56°
2026-05-05 18:56 34.91958 -90.13446 4021 ft 244 kts 56°
2026-05-05 18:57 34.93068 -90.11850 3980 ft 248 kts 37°
2026-05-05 18:57 34.94670 -90.11195 3983 ft 245 kts 355°
2026-05-05 18:57 34.96383 -90.11261 4058 ft 253 kts
2026-05-05 18:57 34.98147 -90.11140 4095 ft 251 kts
2026-05-05 18:58 34.99876 -90.11083 4038 ft 252 kts 358°
2026-05-05 18:58 35.01618 -90.11040 3989 ft 247 kts 359°
2026-05-05 18:58 35.03325 -90.11001 3981 ft 245 kts 358°
2026-05-05 18:58 35.05056 -90.10967 4016 ft 251 kts 358°
2026-05-05 18:59 35.06810 -90.10934 4017 ft 252 kts 359°
2026-05-05 18:59 35.08560 -90.10899 4006 ft 251 kts 359°
2026-05-05 18:59 35.10296 -90.10867 4003 ft 249 kts 358°
2026-05-05 18:59 35.12016 -90.10883 3988 ft 246 kts 356°
2026-05-05 19:00 35.13704 -90.10912 3981 ft 243 kts 356°
2026-05-05 19:00 35.15420 -90.10947 3994 ft 253 kts 356°
2026-05-05 19:00 35.17187 -90.10982 3999 ft 251 kts 356°
2026-05-05 19:00 35.18932 -90.11006 3982 ft 251 kts 356°
2026-05-05 19:01 35.20649 -90.11034 3993 ft 247 kts 357°
2026-05-05 19:01 35.22368 -90.11059 3979 ft 248 kts 356°
2026-05-05 19:01 35.24089 -90.11090 3975 ft 247 kts 357°
2026-05-05 19:01 35.25802 -90.11118 3982 ft 245 kts 357°
2026-05-05 19:02 35.27533 -90.11140 3980 ft 248 kts 357°
2026-05-05 19:02 35.29226 -90.11162 3976 ft 248 kts 356°
2026-05-05 19:02 35.30963 -90.11187 3974 ft 250 kts 356°
2026-05-05 19:02 35.32713 -90.11277 3990 ft 252 kts 357°
2026-05-05 19:03 35.34356 -90.10737 3962 ft 245 kts 37°
2026-05-05 19:03 35.35366 -90.09106 3968 ft 244 kts 75°
2026-05-05 19:03 35.35539 -90.07077 3807 ft 236 kts 104°
2026-05-05 19:03 35.35026 -90.05247 3566 ft 221 kts 126°
2026-05-05 19:04 35.34105 -90.03825 3328 ft 206 kts 146°
2026-05-05 19:04 35.32898 -90.02973 3131 ft 200 kts 159°
2026-05-05 19:04 35.31644 -90.02259 3084 ft 202 kts 159°
2026-05-05 19:04 35.30379 -90.01542 3034 ft 195 kts 159°
2026-05-05 19:05 35.29201 -90.00855 2989 ft 179 kts 159°
2026-05-05 19:05 35.28097 -90.00222 2981 ft 172 kts 160°
2026-05-05 19:05 35.27006 -89.99593 2982 ft 174 kts 160°
2026-05-05 19:05 35.25916 -89.98955 2987 ft 174 kts 159°
2026-05-05 19:06 35.24816 -89.98364 2979 ft 170 kts 169°
2026-05-05 19:06 35.23655 -89.98122 2989 ft 171 kts 176°
2026-05-05 19:06 35.22492 -89.98016 2987 ft 170 kts 178°
2026-05-05 19:06 35.21322 -89.97965 2984 ft 167 kts 179°
2026-05-05 19:07 35.20155 -89.97935 2985 ft 169 kts 181°
2026-05-05 19:07 35.18959 -89.97902 2913 ft 176 kts 181°
2026-05-05 19:07 35.17744 -89.97881 2675 ft 170 kts 179°
2026-05-05 19:07 35.16594 -89.97856 2452 ft 161 kts 179°
2026-05-05 19:08 35.15520 -89.97831 2270 ft 151 kts 179°
2026-05-05 19:08 35.14496 -89.97810 2055 ft 147 kts 179°
2026-05-05 19:08 35.13471 -89.97785 1865 ft 148 kts 179°
2026-05-05 19:08 35.12434 -89.97765 1677 ft 150 kts 179°
2026-05-05 19:09 35.11403 -89.97743 1463 ft 149 kts 178°
2026-05-05 19:09 35.10364 -89.97720 1271 ft 149 kts 178°
2026-05-05 19:09 35.09310 -89.97697 1083 ft 153 kts 178°
2026-05-05 19:09 35.08237 -89.97676 924 ft 154 kts 179°
2026-05-05 19:10 35.07166 -89.97656 755 ft 153 kts 178°
2026-05-05 19:10 35.06117 -89.97629 533 ft 151 kts 178°
2026-05-05 19:10 35.05090 -89.97605 328 ft 139 kts 177°
2026-05-05 19:10 35.04227 -89.97592 328 ft 107 kts 179°
2026-05-05 19:11 35.03610 -89.97579 324 ft 71 kts 179°
2026-05-05 19:11 35.03279 -89.97569 325 ft 27 kts 179°
2026-05-05 19:11 35.03185 -89.97544 328 ft 10 kts 141°
2026-05-05 19:11 35.03164 -89.97475 330 ft 8 kts 88°
2026-05-05 19:12 35.03200 -89.97432 331 ft 8 kts
2026-05-05 19:12 35.03255 -89.97442 332 ft 8 kts 353°
2026-05-05 19:12 35.03314 -89.97441 331 ft 8 kts
2026-05-05 19:12 35.03375 -89.97441 328 ft 10 kts 360°
2026-05-05 19:13 35.03463 -89.97443 329 ft 15 kts 359°
2026-05-05 19:13 35.03578 -89.97445 329 ft 17 kts 359°
2026-05-05 19:13 35.03698 -89.97449 332 ft 17 kts 358°
2026-05-05 19:13 35.03818 -89.97451 329 ft 17 kts 359°
2026-05-05 19:14 35.03937 -89.97453 329 ft 17 kts 359°
2026-05-05 19:14 35.04057 -89.97455 329 ft 17 kts 359°
2026-05-05 19:14 35.04177 -89.97458 330 ft 17 kts 359°
2026-05-05 19:14 35.04297 -89.97460 331 ft 17 kts 359°
2026-05-05 19:15 35.04415 -89.97463 333 ft 17 kts 358°
2026-05-05 19:15 35.04535 -89.97466 330 ft 17 kts 359°
2026-05-05 19:15 35.04656 -89.97468 331 ft 17 kts 359°
2026-05-05 19:15 35.04776 -89.97470 330 ft 17 kts 359°
2026-05-05 19:16 35.04894 -89.97472 329 ft 17 kts 359°
2026-05-05 19:16 35.05015 -89.97474 330 ft 17 kts 359°
2026-05-05 19:16 35.05135 -89.97478 328 ft 17 kts 358°
2026-05-05 19:16 35.05254 -89.97481 328 ft 17 kts
2026-05-05 19:17 35.05369 -89.97483 330 ft 16 kts 359°
2026-05-05 19:17 35.05478 -89.97485 331 ft 16 kts 359°
2026-05-05 19:17 35.05588 -89.97487 330 ft 16 kts 359°
2026-05-05 19:17 35.05698 -89.97488 330 ft 16 kts
2026-05-05 19:18 35.05806 -89.97484 331 ft 15 kts
2026-05-05 19:18 35.05877 -89.97501 333 ft 9 kts 345°
2026-05-05 19:18 35.05919 -89.97487 336 ft 6 kts 40°
2026-05-05 19:18 35.05937 -89.97438 335 ft 7 kts 79°
2026-05-05 19:19 35.05939 -89.97354 333 ft 13 kts 92°
2026-05-05 19:19 35.05935 -89.97251 330 ft 11 kts 92°
2026-05-05 19:19 35.05945 -89.97212 330 ft 4 kts 48°
2026-05-05 19:19 35.05970 -89.97197 330 ft 4 kts 14°
2026-05-05 19:20 35.06001 -89.97195 335 ft 4 kts
2026-05-05 19:20 35.06013 -89.97195 335 ft 0 kts